Theta_e
341 345 347 349 350 353 354 356 356 359 358 355 354 354 354 357 359 359 362 362 362 364 362 357 358 359 358 360 361 358 356 351 352 345 337 337 343 342 347 341 344 344 347
340 343 346 348 349 351 354 356 356 359 359 357 358 357 357 358 360 361 362 362 363 364 362 362 360 362 360 361 361 357 351 350 349 338 334 326 331 343 337 344 339 345 342
338 342 344 346 349 350 352 354 357 358 359 360 359 359 359 359 356 357 357 361 363 364 364 362 363 362 361 352 354 353 349 340 343 345 336 325 324 330 337 338 340 341 341
340 342 343 344 346 349 353 356 358 359 359 361 359 359 354 352 354 356 357 360 362 363 363 362 360 356 354 351 351 351 347 345 336 340 345 343 339 327 325 333 336 339 337
338 339 341 343 347 349 351 354 358 360 361 360 361 357 357 355 356 357 360 362 360 357 353 350 349 352 349 351 348 345 345 344 340 337 337 338 336 338 332 325 327 331 332
337 339 341 344 346 349 351 353 357 360 360 359 358 359 360 359 355 357 356 356 354 353 350 347 349 351 349 346 344 346 344 343 342 340 339 335 331 329 329 325 325 323 324
336 338 339 341 345 346 349 351 355 357 357 357 358 358 359 361 361 359 357 357 352 346 347 348 345 343 345 346 346 347 345 343 341 342 336 335 333 332 329 325 321 318 321
335 337 338 340 343 345 348 351 353 354 357 358 360 361 361 356 357 360 358 356 353 352 344 343 342 343 343 344 346 345 344 344 340 339 337 333 330 329 326 323 320 318 320
334 335 337 340 343 345 350 351 353 355 357 358 359 361 361 360 359 361 359 354 348 342 342 341 340 342 343 343 345 343 342 340 338 336 333 328 324 325 325 326 324 321 315
333 335 338 341 343 345 348 350 352 355 357 358 356 360 361 362 362 362 348 340 337 338 340 339 341 343 342 343 345 342 340 338 334 330 329 327 324 325 327 326 326 325 321
331 334 336 339 341 343 345 347 350 353 357 358 358 359 360 360 362 356 349 340 338 338 338 340 341 340 342 343 340 337 337 333 332 330 326 326 329 327 327 327 326 325 323
331 335 336 337 339 340 343 346 352 354 357 359 362 361 361 358 360 350 341 342 342 341 340 340 339 340 343 342 337 334 332 332 329 326 326 324 326 328 329 327 327 325 324
334 335 336 338 340 343 345 348 350 351 354 359 358 360 362 354 357 354 350 348 348 341 341 340 339 341 343 338 336 334 334 331 327 326 324 323 326 327 327 327 325 323 325
335 336 339 344 345 347 348 347 348 351 355 358 358 360 358 355 353 351 350 350 346 342 339 338 340 343 341 337 335 334 333 330 326 326 324 324 326 327 325 326 324 325 321
333 335 338 342 344 346 347 348 351 354 358 358 359 360 357 356 354 349 349 347 344 340 339 339 342 342 337 333 335 333 328 325 324 325 323 324 327 324 325 323 323 322 317
333 335 337 340 343 345 347 349 353 356 359 359 356 357 356 351 348 347 346 346 343 339 338 340 340 338 333 325 325 328 326 326 326 322 322 327 326 326 323 323 322 320 314
334 336 337 339 343 347 350 350 354 356 356 356 356 353 349 346 346 347 343 340 338 338 338 339 340 337 334 322 322 323 327 326 324 321 323 325 325 325 322 321 320 321 319
336 337 338 340 344 348 352 354 354 353 354 352 350 348 347 345 344 341 339 338 337 336 337 339 340 336 335 321 318 320 327 325 321 321 325 325 325 324 317 316 319 319 314
339 341 342 343 344 345 351 352 351 351 350 349 348 347 347 345 342 339 338 338 336 337 339 340 339 337 336 317 315 319 325 320 320 321 326 324 322 315 312 315 316 313 314
342 341 342 343 344 345 349 348 347 347 347 347 348 347 346 344 342 341 340 338 338 338 338 338 337 328 336 313 311 315 318 317 316 321 324 319 315 309 307 312 313 309 309
339 343 343 343 343 346 347 345 344 344 345 346 345 345 345 345 344 342 339 338 338 339 338 336 337 336 331 323 308 307 317 314 314 316 318 319 309 305 304 304 310 306 310
339 340 341 341 343 345 345 343 343 344 344 344 343 343 344 343 341 340 338 338 338 337 337 336 333 330 328 309 306 305 306 310 316 317 317 315 304 302 303 306 303 304 310
337 340 341 341 342 345 347 344 341 342 339 338 339 341 343 342 339 338 336 334 336 333 334 333 332 329 324 317 305 304 306 308 314 314 309 307 303 302 308 305 305 306 309
322 324 325 325 329 337 339 340 337 340 339 338 338 339 340 337 336 335 335 333 333 335 336 330 330 327 318 314 316 317 316 311 312 312 310 305 305 304 306 309 309 309 309
323 324 325 327 328 331 335 339 338 339 339 338 337 337 333 333 334 333 331 334 333 327 330 327 328 323 315 313 306 307 312 311 306 308 307 303 303 302 302 306 307 307 308
324 325 326 326 327 329 332 335 336 340 339 337 334 331 329 329 328 326 317 306 306 304 302 299 315 315 303 298 296 296 297 298 299 304 302 299 299 299 299 301 304 305 305
Wind_Speed
16 15 15 14 13 12 12 13 13 12 9 8 8 8 8 7 7 6 7 7 6 6 5 4 4 3 4 5 5 5 6 5 4 7 8 6 5 7 3 7 6 7 8
16 16 16 15 15 15 15 14 14 13 11 9 7 6 6 6 7 6 7 9 8 7 6 4 4 3 3 5 5 5 5 4 4 5 7 6 5 0 11 3 9 6 8
18 18 17 17 17 17 16 16 16 15 13 13 8 6 5 4 5 7 7 8 7 6 5 4 3 3 3 3 4 4 4 6 4 5 4 5 4 11 1 8 5 10 8
20 18 19 20 20 19 17 17 16 16 14 14 11 12 10 9 8 6 5 4 4 5 4 4 3 3 1 1 1 2 4 4 6 5 2 4 6 6 8 5 10 6 10
22 22 22 20 20 19 17 17 17 16 15 14 14 12 13 9 7 5 6 5 2 1 3 4 3 0 2 3 1 3 3 2 5 5 6 6 5 5 5 12 11 11 10
23 22 20 19 18 18 18 17 17 16 16 16 16 15 14 12 9 9 7 5 3 3 3 2 2 3 3 1 0 1 2 4 5 5 6 6 5 8 7 11 13 14 12
22 21 21 19 19 20 20 18 17 17 16 16 17 17 16 14 13 11 8 6 4 4 5 5 5 4 4 2 1 1 2 3 5 7 7 6 7 7 9 11 13 13 14
22 23 24 21 20 21 21 20 19 16 17 18 17 15 15 11 11 10 8 6 5 3 6 7 6 6 4 3 3 2 3 3 4 7 6 7 8 8 9 11 11 14 15
22 25 24 22 20 20 21 21 19 18 18 20 16 15 15 15 12 12 6 2 5 3 8 5 5 6 4 4 2 3 3 3 4 6 6 8 8 9 9 9 9 12 16
20 21 19 20 19 20 19 20 21 20 19 20 14 16 16 14 12 10 8 7 9 4 9 8 6 5 4 4 3 3 1 3 4 5 9 9 8 10 9 9 10 11 15
18 18 18 19 20 17 18 20 19 19 18 18 18 15 13 12 12 10 10 8 6 11 8 8 6 5 5 4 3 3 2 4 6 7 8 11 11 9 9 10 11 12 13
14 15 16 17 18 18 17 19 16 17 17 15 13 13 12 11 14 14 12 10 7 6 10 9 7 6 6 5 5 5 4 5 7 9 10 11 10 12 11 10 14 15 15
11 12 14 16 16 16 16 16 16 16 14 14 14 13 14 12 15 15 15 14 11 9 10 8 8 7 7 6 6 4 5 6 7 8 10 12 13 13 12 14 14 13 14
10 12 12 13 13 13 13 13 13 13 14 14 14 14 15 14 12 14 13 14 12 11 10 10 8 9 8 7 6 7 6 7 7 8 10 11 12 13 14 15 16 16 17
12 14 13 12 12 11 11 11 12 13 13 14 14 13 14 14 14 13 13 11 9 9 9 9 9 9 8 7 8 7 6 6 8 10 10 11 14 18 16 12 15 19 17
14 11 11 12 12 12 13 12 12 12 12 12 11 12 12 11 11 11 12 12 10 9 10 10 10 9 7 7 8 7 6 6 8 9 11 12 13 13 19 20 26 23 18
15 14 14 13 12 13 12 13 11 9 10 10 10 10 10 11 12 11 10 10 11 11 10 10 10 9 8 8 8 7 5 7 8 9 10 10 10 14 15 21 24 23 26
12 10 9 9 10 10 10 9 10 9 8 7 7 8 10 11 12 10 11 10 10 10 10 10 10 7 6 7 8 5 5 6 8 9 10 10 12 12 17 18 18 20 19
6 6 7 9 9 10 8 9 9 7 7 7 7 8 9 12 13 13 12 9 9 10 9 8 8 7 5 7 7 3 5 6 8 8 9 9 10 15 18 16 17 18 18
10 10 11 11 11 9 9 9 8 7 6 6 6 8 10 12 13 11 10 9 8 8 6 7 6 4 4 7 5 1 4 6 7 8 8 4 11 15 16 13 14 14 17
16 15 14 12 10 10 10 9 6 5 5 6 6 7 10 11 10 10 9 9 8 7 6 6 5 4 4 6 5 2 4 5 6 6 7 7 12 13 15 11 13 14 17
17 16 15 12 9 9 9 9 7 5 5 6 8 6 9 8 7 8 7 8 8 7 7 6 5 4 5 4 6 2 2 2 5 5 5 6 12 13 12 12 17 16 15
15 14 15 14 11 9 4 6 6 8 9 12 8 5 8 8 8 8 8 7 7 5 6 5 4 4 5 4 4 2 1 3 4 5 6 8 9 10 8 15 13 14 11
14 13 13 13 10 7 7 5 2 6 8 8 7 5 6 6 6 5 6 6 6 5 4 4 4 5 5 4 3 2 2 2 2 3 4 5 5 6 8 9 12 10 10
12 11 11 11 9 8 7 6 4 5 8 7 6 6 6 6 6 5 1 3 4 2 3 4 4 6 6 5 6 5 5 5 4 5 5 8 8 8 9 9 10 10 10
10 10 11 10 10 9 8 6 6 6 8 7 4 5 5 5 6 6 5 11 6 5 5 5 3 5 11 11 8 8 8 7 7 5 7 7 7 9 9 9 9 9 11
Wind_Direction
216 215 216 214 211 210 205 206 208 210 205 205 212 222 225 232 239 241 254 266 263 256 255 273 300 299 299 307 298 301 298 301 324 304 322 314 311 323 12 326 327 326 329
216 216 218 215 212 209 209 205 211 209 206 209 217 230 228 240 252 257 259 253 252 255 258 271 277 275 291 295 307 310 313 304 341 328 305 325 339 266 326 338 323 10 333
219 218 217 215 215 214 209 207 207 211 211 212 213 218 232 238 243 240 244 241 244 261 254 257 266 283 283 328 346 340 342 325 328 331 320 326 330 327 9 317 324 327 322
221 220 217 214 214 216 212 211 205 207 211 206 212 220 229 235 237 239 238 226 236 250 227 242 214 123 87 32 14 2 351 336 323 312 306 291 304 319 318 318 311 305 311
217 217 215 216 215 215 211 212 205 205 206 203 212 213 225 236 239 231 229 220 218 210 177 146 102 298 219 145 315 344 336 324 311 321 317 313 301 282 276 303 316 309 308
217 218 216 213 213 213 211 209 204 204 202 203 210 215 222 224 229 227 230 226 196 168 169 130 154 205 246 228 333 2 332 327 305 302 303 308 317 314 306 300 307 305 306
216 215 211 208 208 208 209 208 203 206 202 206 212 214 221 223 226 230 234 224 204 200 183 180 192 212 220 205 206 215 296 294 300 306 312 308 305 305 300 298 302 303 302
214 214 211 208 207 208 205 205 204 203 198 204 212 212 217 218 226 229 220 221 220 211 197 204 184 211 197 198 208 250 281 295 306 303 309 311 306 309 303 301 306 303 304
212 212 210 208 206 204 205 202 202 200 199 207 206 206 212 221 218 217 192 129 77 8 270 252 210 211 197 215 218 263 285 322 306 305 305 305 313 310 305 298 296 299 300
214 213 206 204 205 207 207 205 206 203 201 209 203 207 203 208 208 200 121 131 132 127 255 228 233 211 202 214 224 252 259 294 292 302 313 317 317 305 299 297 296 296 297
216 211 208 207 207 207 207 210 208 207 205 204 213 210 207 190 197 163 150 152 174 179 207 225 211 209 216 211 210 234 261 262 293 300 315 316 313 303 306 306 300 301 304
210 203 201 198 201 207 209 209 208 207 209 208 211 208 193 172 184 180 166 166 194 191 205 204 210 215 222 207 211 221 220 274 295 313 318 319 316 308 309 308 306 305 294
197 192 191 192 194 201 203 206 205 212 209 206 206 205 197 181 192 186 181 174 183 204 207 205 209 215 214 211 218 215 238 270 289 304 311 315 317 310 309 307 301 292 294
198 191 192 188 191 195 198 202 206 206 205 204 205 206 200 188 187 184 197 178 182 193 199 201 205 214 210 211 215 223 242 266 294 308 312 313 314 305 305 303 299 298 304
211 204 193 188 188 188 192 198 199 195 194 200 206 206 195 193 191 187 191 184 184 191 191 195 203 201 205 206 216 224 242 274 300 311 316 319 317 305 297 302 304 306 304
213 204 196 184 187 185 185 185 190 192 192 196 200 203 197 191 180 179 186 185 188 187 190 197 199 198 212 177 199 222 253 288 297 316 320 316 308 319 310 307 306 304 301
206 193 188 182 179 186 178 181 180 171 192 194 193 190 182 175 175 166 175 179 183 182 190 196 197 206 213 182 199 207 264 294 310 316 309 313 322 324 325 319 317 317 318
202 182 172 172 174 163 169 154 155 165 180 193 176 178 180 172 163 168 176 179 181 185 191 193 198 205 210 180 191 198 266 294 312 311 305 314 325 339 332 325 326 331 324
155 145 144 142 139 139 143 141 135 147 164 177 177 178 176 170 164 174 176 181 178 185 188 182 186 204 197 179 171 249 292 318 321 312 306 327 338 345 331 330 338 330 329
126 126 113 113 116 125 130 120 133 155 168 165 163 167 174 178 176 174 169 175 183 178 174 169 173 152 179 166 131 317 310 324 321 313 328 342 358 330 331 342 345 336 335
119 114 106 108 117 125 116 107 121 132 135 138 155 177 180 188 172 159 164 170 170 158 172 163 153 155 164 143 109 87 314 325 318 327 343 344 352 328 320 335 360 332 321
110 107 106 105 106 112 121 132 136 127 139 148 152 188 190 181 163 156 159 164 167 167 165 175 163 143 140 79 109 121 295 281 319 335 345 339 334 322 313 357 337 335 353
97 94 92 81 60 50 58 139 148 162 177 162 130 171 194 174 157 161 165 166 169 179 191 189 190 179 165 143 121 112 301 58 347 357 351 308 310 320 350 356 345 360 7
91 97 93 89 81 74 70 56 17 170 141 92 121 137 178 155 146 157 174 175 176 191 195 171 206 183 159 147 145 88 51 66 345 3 19 357 334 3 345 357 8 8 9
103 100 103 105 102 95 85 87 111 102 96 82 94 128 141 139 134 80 50 167 84 336 195 209 200 182 163 123 79 47 47 23 34 335 18 16 9 16 13 12 8 5 4
123 116 115 108 99 94 86 65 51 68 82 86 103 132 134 144 135 139 119 52 40 353 296 297 259 105 101 116 129 110 83 54 353 44 28 24 7 18 12 6 4 8 3